Flag for Germany Weather past 2 weeks in Crailsheim, Baden-Württemberg, Germany

46 °F

Rain. Mostly cloudy.

Feels Like: 38 °F
Forecast: 48 / 50 °F
Wind: 24 mph from West

Location: Niederstetten

Current Time: Nov 30, 2015 at 11:30:40 AM

Latest Report: Nov 30, 2015 at 10:20 AM

Visibility: 6 mi

Pressure: 30.15 "Hg

Humidity: 87%

Dew point: 43 °F

Location of CrailsheimLocation

Historic Weather in Crailsheim — Graph


Crailsheim temperature yesterday

Maximum temperature yesterday: 48 °F (at 11:20 PM)
Minimum temperature yesterday: 34 °F (at 12:20 AM)
Average temperature yesterday: 40 °F

Past Weeks' High & Low Weather Summary

High57 °F (Nov 18, 2:20 AM)100% (Nov 20, 5:20 PM)30.24 "Hg (Nov 20, 5:20 PM)
Low27 °F (Nov 27, 6:20 AM)44% (Nov 16, 11:20 AM)29.39 "Hg (Nov 21, 12:20 PM)
Average40 °F86%29.91 "Hg
* Reported Nov 15 10:20 AM — Nov 30 10:20 AM, Crailsheim, Weather by CustomWeather, © 2015

Note: Actual official high and low records may vary slightly from our data, if they occured in-between our weather recording intervals... More about our weather records


Crailsheim weather history for previous 24 hours

Time TempWeatherWind HumidityBarometerVisibility
10:20 AM
Mon, Nov 30
46 °FRain. Mostly cloudy.24 mph87%30.15 "Hg6 mi
9:20 AM46 °FRain. Mostly cloudy.18 mph87%30.15 "Hg4 mi
8:20 AM46 °FRain. Mostly cloudy.28 mph87%30.09 "Hg5 mi
7:49 AM46 °FLight rain. Mostly cloudy.32 mph87%30.09 "Hg4 mi
7:20 AM46 °FLight rain. Fog.33 mph87%30.07 "Hg3 mi
6:20 AM45 °FRain. Fog.35 mph93%30.07 "Hg3 mi
5:20 AM46 °FLight rain. Overcast.36 mph87%30.04 "Hg4 mi
4:20 AM46 °FLight rain. Overcast.33 mph82%30.04 "Hg4 mi
3:20 AM46 °FLight rain. Overcast.33 mph82%30.04 "Hg5 mi
2:20 AM48 °FOvercast.35 mph71%30.01 "HgN/A
1:20 AM48 °FOvercast.37 mph71%30.01 "HgN/A
12:20 AM48 °FLight rain. Overcast.38 mph76%30.01 "HgN/A
11:20 PM
Sun, Nov 29
48 °FOvercast.37 mph76%30.01 "HgN/A
10:20 PM46 °FOvercast.36 mph82%30.01 "HgN/A
9:20 PM46 °FOvercast.31 mph82%30.01 "HgN/A
8:20 PM46 °FLight rain. Overcast.33 mph82%30.01 "Hg6 mi
7:20 PM45 °FRain. Overcast.30 mph87%29.98 "Hg5 mi
6:20 PM46 °FOvercast.33 mph82%29.98 "HgN/A
6:04 PM46 °FOvercast.33 mph82%29.98 "HgN/A
5:20 PM46 °FOvercast.30 mph82%29.98 "HgN/A
4:20 PM45 °FLight rain. Mostly cloudy.25 mph87%30.01 "HgN/A
3:20 PM45 °FLight rain. Mostly cloudy.31 mph87%29.98 "HgN/A
2:20 PM43 °FLight rain. Mostly cloudy.24 mph93%29.98 "HgN/A
1:20 PM39 °FRain. Mostly cloudy.18 mph93%29.98 "HgN/A
12:20 PM39 °FRain. More clouds than sun.15 mph93%29.98 "HgN/A
11:20 AM37 °FRain. Cloudy.15 mph93%30.01 "HgN/A
Weather by CustomWeather, © 2015

See weather overviewHow to use our weather pages